User: anonymous   Login
Location: Härggis
(46.9540°N, 8.4897°E)
Time: 09:13:08
(UTC+00:00)
Language:

Cosmos 292 Rocket - Orbit

View from above orbital plane
View from above orbital plane
View from above satellite
View from above satellite

Ground track
Ground track

The orbit data is extracted from the following two-line orbital elements,

1  4071U 69070B   22222.78467695  .00000298  00000-0  63827-4 0  9995
2  4071  74.0490 119.2395 0014789 331.4405  28.5951 14.63161292812845
Epoch (UTC): 10 August 2022 18:49:56
Eccentricity: 0.0014789
inclination: 74.0490°
perigee height: 672 km
apogee height: 693 km
right ascension of ascending node: 119.2395°
argument of perigee: 331.4405°
revolutions per day: 14.63161292
mean anomaly at epoch: 28.5951°
orbit number at epoch: 81284

The dashed part of the orbit path shows where the satellite is in the earth's shadow,  

DLR